Weather History for Grazzanise, Italy

Change the Weather History Date:

Thursday, November 1, 2012

  Actual Average (LIRN) Record (LIRN)
Temperature  
Mean Temperature 60 °F -  
Max Temperature 66 °F 63 °F 84 °F (2004)
Min Temperature 55 °F 45 °F 35 °F (2004)
Degree Days  
Heating Degree Days 4    
Growing Degree Days 10 (Base 50)    
Moisture  
Dew Point 57 °F    
Average Humidity 84    
Maximum Humidity 100    
Minimum Humidity 64    
Precipitation  
Precipitation 0.00 in 0.18 in - ()
Sea Level Pressure  
Sea Level Pressure 29.55 in    
Wind  
Wind Speed 12 mph ()    
Max Wind Speed 23 mph    
Max Gust Speed 37 mph    
Visibility 6.6 miles    
Events Rain    
Averages and records for this station are not official NWS values.
T = Trace of Precipitation, MM = Missing Value Source: Averaged Metar Reports

Daily Weather History Graph

Daily Weather History Graph

Search for Another Location

Airport:

Trip Planner

Search our weather history database for the weather conditions in past years. The results will help you decide how hot, cold, wet, or windy it might be!

Date:

Astronomy

Nov. 01, 2012 Rise Set
Actual Time 6:34 AM CET 4:59 PM CET
Civil Twilight 6:06 AM CET 5:27 PM CET
Nautical Twilight 5:33 AM CET 6:00 PM CET
Astronomical Twilight 5:01 AM CET 6:32 PM CET
Moon 6:41 PM CET (11/1) 8:54 AM CET (11/1)
Length of Visible Light 11h 21m
Length of Day
10h 24m
Waning Gibbous, 94% of the Moon is Illuminated
Nov 1
Waning Gibbous
Nov 7
Last Quarter
Nov 13
New
Nov 20
First Quarter
Nov 28
Full

Hourly Weather History & Observations

Time (CET) Temp. Dew Point Humidity Pressure Visibility Wind Dir Wind Speed Gust Speed Precip Events Conditions
12:30 AM 66.2 °F 62.6 °F 88% 29.42 in 2.8 mi South 9.2 mph - N/A Rain Rain
12:55 AM 64.4 °F 64.4 °F 100% 29.42 in 6.2 mi SSW 12.7 mph - N/A   Scattered Clouds
1:00 AM 65 °F 64 °F 94% 29.44 in 6 mi SSW 12.7 mph - -  
1:55 AM 62.6 °F 59.0 °F 88% 29.42 in 6.2 mi SW 13.8 mph - N/A   Partly Cloudy
2:55 AM 62.6 °F 59.0 °F 88% 29.42 in 6.2 mi South 11.5 mph - N/A   Mostly Cloudy
3:55 AM 64.4 °F 59.0 °F 83% 29.42 in 6.2 mi SW 20.7 mph 33.4 mph N/A   Mostly Cloudy
4:00 AM 65 °F 59 °F 76% 29.43 in 6 mi SW 20.7 mph - -   Mostly Cloudy
4:55 AM 64.4 °F 59.0 °F 83% 29.42 in 6.2 mi SW 21.9 mph 33.4 mph N/A Rain Light Rain
5:55 AM 64.4 °F 59.0 °F 83% 29.42 in 5.0 mi SW 21.9 mph 34.5 mph N/A Rain Light Rain
6:55 AM 62.6 °F 60.8 °F 94% 29.42 in 4.3 mi WSW 18.4 mph 29.9 mph N/A   Scattered Clouds
7:00 AM 63 °F 61 °F 89% 29.43 in 4 mi WSW 18.4 mph - -  
7:55 AM 60.8 °F 53.6 °F 77% 29.44 in 6.2 mi West 18.4 mph 34.5 mph N/A   Mostly Cloudy
8:55 AM 60.8 °F 53.6 °F 77% 29.50 in 6.2 mi West 23.0 mph 36.8 mph N/A   Mostly Cloudy
9:55 AM 62.6 °F 55.4 °F 77% 29.50 in 6.2 mi West 23.0 mph 34.5 mph N/A   Mostly Cloudy
10:00 AM 62 °F 55 °F 73% 29.52 in 9 mi West 23.0 mph - -   Mostly Cloudy
10:55 AM 60.8 °F 57.2 °F 88% 29.56 in 6.2 mi West 17.3 mph - N/A   Mostly Cloudy
11:55 AM 60.8 °F 55.4 °F 82% 29.56 in 6.2 mi West 17.3 mph - N/A   Mostly Cloudy
12:55 PM 62.6 °F 57.2 °F 82% 29.59 in 6.2 mi West 15.0 mph - N/A   Mostly Cloudy
1:00 PM 63 °F 56 °F 72% 29.60 in 9 mi West 15.0 mph - -  
1:55 PM 64.4 °F 55.4 °F 73% 29.62 in 6.2 mi WNW 18.4 mph - N/A   Mostly Cloudy
2:55 PM 64.4 °F 57.2 °F 77% 29.62 in 6.2 mi West 13.8 mph - N/A   Scattered Clouds
3:55 PM 62.6 °F 53.6 °F 72% 29.62 in 6.2 mi West 11.5 mph - N/A   Scattered Clouds
4:00 PM 63 °F 54 °F 64% 29.64 in 12 mi West 11.5 mph - -   Partly Cloudy
4:55 PM 60.8 °F 55.4 °F 82% 29.62 in 6.2 mi WSW 6.9 mph - N/A   Scattered Clouds
5:55 PM 57.2 °F 53.6 °F 88% 29.65 in 6.2 mi SSW 2.3 mph - N/A   Scattered Clouds
6:55 PM 55.4 °F 53.6 °F 94% 29.68 in 6.2 mi SSE 6.9 mph - N/A   Scattered Clouds
7:00 PM 55 °F 54 °F 95% 29.68 in 12 mi SSE 6.9 mph - -  
7:55 PM 55.4 °F 53.6 °F 94% 29.68 in 6.2 mi South 4.6 mph - N/A   Scattered Clouds
8:55 PM 57.2 °F 53.6 °F 88% 29.71 in 6.2 mi South 5.8 mph - N/A   Scattered Clouds
9:55 PM 57.2 °F 53.6 °F 88% 29.71 in 6.2 mi South 3.5 mph - N/A   Scattered Clouds
10:00 PM 56 °F 54 °F 89% 29.72 in 12 mi South 3.5 mph - -   Partly Cloudy
10:55 PM 57.2 °F 55.4 °F 94% 29.71 in 6.2 mi SE 2.3 mph - N/A   Scattered Clouds
11:55 PM 59.0 °F 57.2 °F 94% 29.71 in 6.2 mi West 3.5 mph - N/A   Scattered Clouds